[[{"header":{"parameterUnit":"m.s-1","parameterCategory":1,"la1":30.2991,"la2":30.254,"lo1":-89.0895,"lo2":-89.0444,"dy":0.0017,"dx":0.0017,"nx":28,"ny":28,"refTime":"2025-06-15T21:00:00:Z","depth":0,"parameterNumber":2,"parameterNumberName":"U-component_of_WINDS"},"data":[0,0,0,0,0,0,0,0,0,0,0,0,0,0,0,0,0,0,0,0,0,0,0,0,0,0,0,0,0,0,0,0,0,0,0,0,0,0,0,0,0,0,0,0,0,0,0,0,0,0,0,0,0,0,0,0,0,0,-0.8516,-0.8515,0,-0.8437,-0.8436,-0.8435,-0.8386,-0.8386,-0.8385,-0.8385,-0.8303,-0.8301,-0.8299,0,0,0,0,0,0,0,0,0,0,0,0,0,-0.8625,-0.8623,-0.8516,-0.8515,-0.8514,-0.8437,-0.8436,-0.8435,-0.8386,-0.8386,-0.8385,-0.8385,-0.8303,-0.8301,-0.8299,0,0,0,0,0,0,0,0,0,0,0,0,0,-0.8565,-0.8623,-0.8516,-0.8481,-0.8477,-0.8437,-0.8436,-0.8435,-0.8386,-0.8386,-0.8385,-0.8385,-0.8304,-0.8301,-0.8298,-0.8288,0,0,-0.829,-0.8288,0,0,0,0,0,0,0,0,-0.8569,-0.8561,-0.8487,-0.8483,-0.8478,-0.8421,-0.8444,-0.8385,-0.8386,-0.842,-0.8385,-0.8385,-0.8342,-0.8336,-0.8322,-0.8284,-0.8281,-0.8289,-0.8287,-0.8286,-0.8285,0,0,0,0,0,0,0,-0.8573,-0.8564,-0.8485,-0.8486,-0.8481,-0.8468,-0.8459,-0.8433,-0.8384,-0.8417,-0.8414,-0.8405,-0.834,-0.8325,-0.832,-0.828,-0.8289,-0.8287,-0.8285,-0.8284,-0.823,-0.823,0,0,0,0,0,0,-0.8583,-0.8568,-0.8487,-0.8482,-0.8523,-0.8467,-0.8457,-0.844,-0.8385,-0.8376,-0.8405,-0.8403,-0.833,-0.8323,-0.8317,-0.8301,-0.8286,-0.8284,-0.8282,-0.823,-0.823,-0.823,0,0,0,0,0,0,-0.8585,-0.8576,-0.849,-0.8524,-0.8512,-0.8465,-0.8447,-0.8438,-0.8423,-0.8376,-0.8367,-0.8399,-0.833,-0.8321,-0.8296,-0.8297,-0.8282,-0.828,-0.8229,-0.823,-0.823,-0.827,0,0,0,0,0,0,-0.8589,-0.8577,-0.8573,-0.8524,-0.8511,-0.8471,-0.8447,-0.8437,-0.8419,-0.8415,-0.8367,-0.8359,-0.8329,-0.8301,-0.8293,-0.8293,-0.8277,-0.8229,-0.823,-0.823,-0.8268,-0.8271,-0.8274,0,0,0,0,0,-0.8593,-0.8587,-0.8573,-0.8563,-0.8504,-0.8471,-0.8463,-0.8429,-0.8419,-0.8414,-0.8384,-0.8361,-0.8299,-0.8298,-0.8289,-0.8289,-0.8229,-0.8229,-0.823,-0.8267,-0.8271,-0.8274,0,0,0,0,0,0,-0.8636,-0.858,-0.8564,-0.8542,-0.8512,-0.8463,-0.8456,-0.8434,-0.8406,-0.8404,-0.8362,-0.8352,-0.8331,-0.8307,-0.8308,-0.8276,-0.8261,-0.826,-0.8292,-0.8296,-0.8299,-0.8304,-0.8275,0,0,0,0,0,-0.8643,-0.8621,-0.8573,-0.8559,-0.8544,-0.8503,-0.8487,-0.8463,-0.843,-0.8417,-0.8385,-0.8353,-0.8327,-0.831,-0.8283,-0.8265,-0.8254,-0.826,-0.8264,-0.8266,-0.8266,-0.8254,-0.8257,-0.8233,-0.8233,-0.8233,0,0,-0.8657,-0.8624,-0.8612,-0.8566,-0.854,-0.8518,-0.8492,-0.847,-0.8453,-0.8414,-0.8388,-0.8363,-0.8326,-0.8304,-0.8293,-0.8284,-0.827,-0.8267,-0.827,-0.8267,-0.8255,-0.8258,-0.826,-0.8233,-0.8233,-0.8233,0,0,-0.8671,-0.8644,-0.8629,-0.8604,-0.8565,-0.8537,-0.8534,-0.8489,-0.8471,-0.8445,-0.8415,-0.8394,-0.835,-0.8324,-0.8305,-0.8312,-0.8289,-0.8304,-0.832,-0.831,-0.8312,-0.8313,-0.8315,-0.8316,-0.8304,-0.8304,-0.8304,0,-0.8693,-0.8659,-0.8624,-0.8603,-0.8584,-0.8548,-0.8533,-0.851,-0.8464,-0.8452,-0.8443,-0.8386,-0.8358,-0.833,-0.8332,-0.8318,-0.8313,-0.8308,-0.8314,-0.8316,-0.8316,-0.8317,-0.8318,-0.8306,-0.8306,-0.8305,-0.8305,0,-0.8688,-0.8665,-0.8657,-0.8615,-0.8595,-0.8577,-0.8539,-0.8523,-0.8502,-0.8476,-0.845,-0.8416,-0.8381,-0.8373,-0.8352,-0.8342,-0.8338,-0.8322,-0.8306,-0.8321,-0.8322,-0.8322,-0.8309,-0.8308,-0.8307,-0.8307,0,0,-0.8725,-0.8664,-0.8662,-0.8642,-0.8598,-0.8579,-0.856,-0.8527,-0.8514,-0.8484,-0.8467,-0.8431,-0.8416,-0.8395,-0.8371,-0.8362,-0.8369,-0.8347,-0.8346,-0.8352,-0.8356,-0.8367,-0.8368,-0.8355,-0.8355,-0.8355,-0.8359,0,-0.8732,-0.8696,-0.8664,-0.8639,-0.8618,-0.8584,-0.8568,-0.8539,-0.8514,-0.8492,-0.8465,-0.844,-0.8423,-0.841,-0.84,-0.837,-0.8369,-0.837,-0.8338,-0.8337,-0.8347,-0.8369,-0.838,-0.8386,-0.8359,-0.8359,-0.8359,0,-0.8734,-0.8706,-0.868,-0.8638,-0.8628,-0.8613,-0.8581,-0.856,-0.8527,-0.851,-0.8487,-0.8462,-0.844,-0.8428,-0.8397,-0.8399,-0.8384,-0.8368,-0.8367,-0.8361,-0.8348,-0.8363,-0.8387,-0.8387,-0.8359,-0.8359,-0.8359,0,-0.8763,-0.8719,-0.8697,-0.8682,-0.8633,-0.8623,-0.8602,-0.8569,-0.8551,-0.8523,-0.8511,-0.8481,-0.8464,-0.8441,-0.8409,-0.8403,-0.8382,-0.8366,-0.8366,-0.8367,-0.8362,-0.8362,-0.8383,-0.8355,-0.8355,-0.8355,-0.8355,0,-0.8773,-0.8758,-0.871,-0.8696,-0.8679,-0.8643,-0.8626,-0.8603,-0.8573,-0.8555,-0.8524,-0.8508,-0.8466,-0.8445,-0.8419,-0.8398,-0.8391,-0.8376,-0.8369,-0.8378,-0.838,-0.8366,-0.8365,-0.8355,-0.8355,-0.8355,-0.8355,0,-0.8801,-0.8769,-0.8743,-0.8699,-0.8688,-0.8676,-0.8639,-0.8624,-0.8599,-0.8576,-0.8569,-0.8529,-0.8502,-0.8468,-0.843,-0.8413,-0.8394,-0.8384,-0.8405,-0.8401,-0.8402,-0.8402,-0.8414,-0.8413,-0.8387,-0.8388,-0.8388,0,-0.8809,-0.8797,-0.8752,-0.8738,-0.8718,-0.8695,-0.8677,-0.8642,-0.8625,-0.8587,-0.8577,-0.8548,-0.8523,-0.8481,-0.8449,-0.842,-0.8408,-0.8415,-0.8404,-0.8413,-0.8407,-0.8408,-0.8407,-0.8417,-0.8417,-0.8418,-0.8418,0,-0.8826,-0.8811,-0.8787,-0.8757,-0.8737,-0.8711,-0.8685,-0.8675,-0.8634,-0.8617,-0.8589,-0.857,-0.8532,-0.8503,-0.847,-0.8448,-0.8426,-0.8422,-0.842,-0.8428,-0.8441,-0.8433,-0.8411,-0.8421,-0.8421,-0.8421,-0.8421,-0.8421,-0.8844,-0.8831,-0.8798,-0.8772,-0.8749,-0.8725,-0.871,-0.8683,-0.8659,-0.8626,-0.8607,-0.858,-0.8547,-0.8501,-0.8481,-0.8459,-0.8451,-0.8448,-0.8448,-0.8447,-0.845,-0.8446,-0.8453,-0.8453,-0.8453,-0.8453,-0.8453,0,-0.8859,-0.8836,-0.8813,-0.8777,-0.8756,-0.8739,-0.8709,-0.8693,-0.867,-0.8642,-0.8618,-0.8586,-0.8559,-0.8525,-0.8495,-0.8485,-0.8474,-0.8478,-0.8478,-0.8473,-0.8459,-0.8463,-0.8487,-0.8487,-0.8487,-0.8487,-0.8487,-0.8487,-0.8864,-0.8842,-0.8823,-0.8789,-0.8767,-0.874,-0.8725,-0.8703,-0.868,-0.8647,-0.8624,-0.8602,-0.8572,-0.854,-0.8514,-0.8505,-0.8495,-0.8502,-0.849,-0.8477,-0.8474,-0.8471,-0.8474,-0.85,-0.85,-0.8505,-0.8505,-0.8505]},{"header":{"parameterUnit":"m.s-1","parameterCategory":1,"la1":30.2991,"la2":30.254,"lo1":-89.0895,"lo2":-89.0444,"dy":0.0017,"dx":0.0017,"nx":28,"ny":28,"refTime":"2025-06-15T21:00:00:Z","depth":0,"parameterNumber":3,"parameterNumberName":"V-component_of_WINDS"},"data":[0,0,0,0,0,0,0,0,0,0,0,0,0,0,0,0,0,0,0,0,0,0,0,0,0,0,0,0,0,0,0,0,0,0,0,0,0,0,0,0,0,0,0,0,0,0,0,0,0,0,0,0,0,0,0,0,0,0,3.3161,3.3161,0,3.3146,3.3146,3.3146,3.3168,3.3168,3.3169,3.317,3.3152,3.3151,3.315,0,0,0,0,0,0,0,0,0,0,0,0,0,3.3205,3.3205,3.3161,3.3161,3.316,3.3146,3.3146,3.3146,3.3167,3.3168,3.3169,3.317,3.3152,3.3151,3.3149,0,0,0,0,0,0,0,0,0,0,0,0,0,3.3188,3.3204,3.3161,3.317,3.317,3.3146,3.3146,3.3146,3.3167,3.3168,3.3169,3.3171,3.3153,3.3151,3.3149,3.3115,0,0,3.3144,3.3143,0,0,0,0,0,0,0,0,3.3189,3.3186,3.3168,3.3169,3.317,3.316,3.3155,3.3135,3.3167,3.3168,3.317,3.3171,3.3153,3.3152,3.3146,3.3114,3.3113,3.3144,3.3142,3.3142,3.3141,0,0,0,0,0,0,0,3.319,3.3187,3.3155,3.3168,3.3169,3.3174,3.3172,3.3151,3.3154,3.3168,3.317,3.3168,3.3154,3.3148,3.3146,3.3113,3.3144,3.3142,3.3141,3.314,3.3053,3.3051,0,0,0,0,0,0,3.3191,3.3188,3.3155,3.3154,3.3182,3.3172,3.317,3.3162,3.3155,3.3155,3.3167,3.3169,3.315,3.3148,3.3145,3.3105,3.3142,3.314,3.3139,3.3054,3.3052,3.3051,0,0,0,0,0,0,3.3191,3.3187,3.3156,3.3172,3.3168,3.317,3.316,3.3161,3.3155,3.3154,3.3154,3.316,3.3151,3.3148,3.3123,3.3104,3.3139,3.3138,3.3055,3.3053,3.3052,3.3023,0,0,0,0,0,0,3.3193,3.3188,3.3175,3.3171,3.3167,3.3134,3.3159,3.316,3.3152,3.3155,3.3148,3.3148,3.3152,3.3125,3.3121,3.3103,3.3136,3.3057,3.3054,3.3052,3.3026,3.3021,3.3016,0,0,0,0,0,3.3194,3.3167,3.3174,3.317,3.3151,3.3133,3.313,3.3136,3.3151,3.3138,3.3137,3.3148,3.3108,3.3122,3.3118,3.3099,3.3058,3.3055,3.3052,3.3028,3.3022,3.3016,0,0,0,0,0,0,3.3167,3.3166,3.3175,3.3145,3.3139,3.3136,3.312,3.313,3.3118,3.3121,3.3129,3.3127,3.31,3.3097,3.3114,3.3065,3.3085,3.3081,3.3068,3.3062,3.3057,3.3058,3.3135,0,0,0,0,0,3.3158,3.3144,3.3144,3.3118,3.3114,3.3118,3.311,3.3116,3.3109,3.3106,3.3104,3.3096,3.3082,3.3072,3.3059,3.3026,3.3025,3.3011,3.3006,3.3002,3.2998,3.2981,3.2974,3.3042,3.3042,3.3042,0,0,3.3138,3.3136,3.3126,3.3112,3.3108,3.3092,3.3115,3.3098,3.3086,3.3103,3.3079,3.3077,3.3069,3.304,3.3027,3.3037,3.298,3.2999,3.2995,3.2994,3.2977,3.2971,3.2965,3.304,3.304,3.3041,0,0,3.3094,3.3092,3.307,3.3066,3.306,3.3063,3.3057,3.3054,3.3053,3.303,3.3043,3.3029,3.3004,3.2998,3.2991,3.2947,3.2956,3.2943,3.2917,3.29,3.2895,3.289,3.2873,3.2868,3.2939,3.2939,3.2939,0,3.307,3.3048,3.3057,3.3039,3.3032,3.3049,3.3027,3.3022,3.3011,3.3006,3.3017,3.2987,3.2983,3.2953,3.2942,3.2937,3.2931,3.2943,3.2895,3.289,3.2886,3.287,3.2864,3.2937,3.2937,3.2938,3.2938,0,3.3019,3.3003,3.2986,3.2977,3.2969,3.2948,3.2954,3.2944,3.2951,3.2953,3.2929,3.2925,3.2911,3.2905,3.291,3.2875,3.2881,3.2894,3.2913,3.2878,3.2863,3.2857,3.2935,3.2935,3.2936,3.2936,0,0,3.2956,3.2953,3.2947,3.2943,3.2938,3.2926,3.2906,3.2894,3.2885,3.2878,3.2862,3.2841,3.2853,3.2846,3.2851,3.2837,3.2801,3.2851,3.2851,3.2841,3.2762,3.2752,3.2745,3.2808,3.2807,3.2806,3.2762,0,3.2912,3.2879,3.2887,3.2855,3.284,3.2856,3.284,3.2834,3.2836,3.2823,3.2824,3.281,3.2827,3.2822,3.2809,3.2809,3.2785,3.2812,3.2792,3.2791,3.2792,3.2737,3.2726,3.2685,3.2757,3.2756,3.2755,0,3.2855,3.2847,3.2813,3.2811,3.2805,3.279,3.278,3.2768,3.2763,3.2765,3.2758,3.2767,3.2747,3.2769,3.2742,3.2759,3.2752,3.2751,3.275,3.2747,3.277,3.2732,3.2672,3.2665,3.2746,3.2747,3.2748,0,3.2812,3.2792,3.2769,3.2766,3.2763,3.2752,3.275,3.2746,3.2739,3.273,3.2725,3.2714,3.2707,3.2698,3.2704,3.2719,3.2676,3.2697,3.2676,3.2676,3.2665,3.2665,3.2601,3.2662,3.2662,3.2662,3.2662,0,3.2761,3.2739,3.275,3.2735,3.2712,3.2722,3.2698,3.2698,3.2695,3.2681,3.2694,3.268,3.2689,3.2676,3.2681,3.2657,3.2654,3.2655,3.2656,3.2653,3.2653,3.2647,3.265,3.266,3.2661,3.2661,3.2661,0,3.2707,3.2714,3.269,3.269,3.269,3.2672,3.2672,3.2659,3.2662,3.2644,3.264,3.2644,3.263,3.2635,3.2619,3.2622,3.2593,3.2598,3.2594,3.2595,3.2573,3.2575,3.2503,3.2494,3.2561,3.256,3.256,0,3.2673,3.2657,3.2657,3.2649,3.2646,3.2633,3.2626,3.2636,3.2627,3.2621,3.2608,3.2595,3.2585,3.2561,3.2562,3.255,3.2555,3.2531,3.2553,3.2551,3.2554,3.2554,3.2552,3.2526,3.2525,3.2524,3.2524,0,3.2613,3.2617,3.2607,3.2597,3.2589,3.2582,3.2576,3.2568,3.2578,3.2568,3.2554,3.2546,3.2531,3.2517,3.2507,3.2505,3.2515,3.2517,3.2511,3.2507,3.2506,3.2506,3.2581,3.2518,3.2519,3.2519,3.2519,3.252,3.2568,3.2554,3.2552,3.254,3.2537,3.2531,3.2519,3.2521,3.251,3.2499,3.2505,3.2489,3.2485,3.2472,3.2468,3.2455,3.2465,3.2457,3.2454,3.2452,3.2449,3.2509,3.2454,3.2454,3.2454,3.2454,3.2454,0,3.2507,3.2507,3.2496,3.2488,3.2478,3.2491,3.2485,3.2476,3.2462,3.2458,3.2448,3.2432,3.242,3.2421,3.2409,3.2399,3.2403,3.2395,3.2395,3.2395,3.2441,3.2447,3.2392,3.2392,3.2392,3.2392,3.2392,3.2392,3.2475,3.2453,3.2457,3.2434,3.2433,3.2418,3.2414,3.2409,3.2405,3.2387,3.2377,3.2379,3.2377,3.2365,3.2354,3.2355,3.235,3.234,3.2342,3.2385,3.2391,3.2397,3.2403,3.2339,3.2338,3.2296,3.2296,3.2295]}]]